Volver al catálogo

SL-12 DEB

LostHEO
NORAD 28583·DEBRIS·🇷🇺 Russia

Lanzado Jul 30, 1992 desde Baikonur Cosmodrome

Loading…

Próximos Pases (próximas 24 horas)

TLE

ObsoletoSource: Space-Track

Época: Feb 3, 2021, 09:23 UTC

1 28583U 92047S   21034.39131492 -.00000016  00000-0  00000+0 0  9997
2 28583  63.6353  37.0500 3749133 146.0175 244.9970  5.88834793280047

Sigue SL-12 DEB en tiempo real con AllMySat

Download on the App Store